Temperature
7 7 7 8 8 8 7 7 7 8 8 9 9 9 9 10 10 10 10 10 10 10 10 10 10 10 10 10 9 9 8 8 8 9 9 9 9 8 8 8 8 7 7 7
6 7 7 7 7 8 8 8 7 8 8 8 9 9 9 9 9 9 9 9 10 10 10 10 10 10 9 9 9 8 8 8 8 8 8 8 8 8 7 7 7 6 6 5
5 7 7 6 7 7 7 7 7 7 8 8 8 8 8 8 8 8 8 8 9 9 9 9 9 9 9 9 8 8 8 8 8 8 8 7 7 7 7 6 6 5 5 4
5 6 5 6 7 7 7 6 6 7 7 7 7 7 7 7 7 7 7 8 8 8 9 9 9 9 9 8 8 8 8 7 7 7 7 7 7 6 6 5 5 4 4 3
4 5 5 6 7 7 7 6 5 6 6 6 7 6 6 6 6 6 7 7 7 8 8 8 8 8 8 8 8 8 7 7 7 7 7 6 6 5 5 5 4 4 3 2
4 5 5 6 7 7 7 5 5 5 4 5 6 5 5 6 6 6 6 6 7 7 7 8 8 8 8 8 7 7 7 7 7 6 6 6 5 5 4 4 3 3 2 1
4 4 5 5 6 7 6 5 4 4 4 4 4 4 5 5 5 6 6 6 6 6 7 7 7 7 7 7 7 7 6 6 6 5 5 5 4 4 3 3 2 2 1 1
3 4 4 5 5 5 4 4 4 4 4 4 4 4 4 5 5 5 5 5 5 5 6 6 6 6 6 6 6 6 6 5 5 5 4 4 3 3 3 2 2 2 1 1
3 4 4 4 4 4 4 3 3 3 3 3 3 3 4 4 4 4 4 4 5 5 5 5 5 5 5 5 5 5 5 5 4 4 4 3 3 3 2 2 2 1 1 1
3 3 3 3 3 3 3 3 3 3 3 2 2 3 3 3 3 3 3 4 4 4 4 4 4 4 4 4 4 4 4 4 4 3 3 3 2 2 2 2 1 1 1 0
2 2 2 2 2 2 2 2 2 2 2 2 2 2 2 2 2 3 3 3 3 3 3 3 4 4 4 3 3 4 3 3 3 3 3 2 2 2 2 1 1 1 0 0
2 2 2 2 2 2 2 1 1 1 1 1 1 1 1 1 1 2 2 2 2 2 2 3 3 3 3 3 3 3 3 3 2 2 2 2 2 1 1 1 1 0 0 0
3 3 2 2 1 1 1 1 1 0 0 0 0 0 0 1 1 1 1 1 1 1 2 2 2 2 2 2 2 2 2 2 2 1 1 1 1 1 1 1 0 0 0 0
2 2 1 1 1 1 0 0 -0 -0 -0 -0 -0 -0 -0 -0 -0 -0 -0 0 0 0 1 1 1 1 1 1 1 1 1 1 1 1 1 1 1 1 0 0 0 0 0 0
2 2 1 1 0 0 -0 -1 -1 -1 -1 -1 -1 -1 -1 -1 -1 -1 -1 -1 -1 -1 -0 -0 -0 0 0 0 0 0 0 0 0 0 0 0 0 -0 -0 -0 -0 0 0 -0
1 1 1 0 -0 -0 -1 -1 -1 -1 -1 -1 -1 -2 -2 -2 -2 -2 -2 -2 -2 -1 -1 -1 -1 -1 -1 -1 -1 -0 -0 -0 -1 -0 -0 -0 -1 -1 -1 -1 -1 -1 -0 -0
1 1 0 0 -0 -0 -1 -1 -2 -2 -2 -2 -2 -2 -2 -2 -2 -2 -2 -2 -2 -2 -2 -2 -2 -2 -2 -2 -2 -1 -1 -1 -1 -1 -1 -1 -1 -1 -1 -1 -1 -1 -1 -1
1 1 1 0 -0 -1 -1 -1 -2 -2 -2 -2 -3 -3 -3 -3 -3 -3 -3 -3 -3 -3 -2 -2 -3 -2 -2 -2 -2 -2 -2 -2 -2 -2 -2 -2 -2 -2 -2 -2 -1 -1 -1 -1
1 1 0 -0 -1 -1 -1 -1 -2 -2 -2 -3 -3 -3 -3 -3 -3 -3 -3 -3 -3 -3 -3 -3 -3 -3 -3 -3 -3 -3 -3 -3 -3 -2 -2 -2 -2 -2 -2 -2 -2 -2 -2 -2
1 0 -0 -0 -1 -1 -1 -2 -2 -2 -2 -3 -3 -3 -3 -3 -3 -3 -4 -4 -3 -4 -4 -4 -4 -4 -4 -4 -4 -4 -4 -4 -3 -3 -3 -3 -3 -3 -3 -3 -3 -3 -2 -2
0 0 -0 -1 -1 -1 -1 -2 -2 -2 -3 -3 -3 -3 -3 -4 -4 -4 -4 -4 -3 -4 -4 -4 -4 -4 -4 -4 -4 -4 -4 -4 -4 -4 -4 -4 -4 -3 -3 -3 -3 -3 -3 -3
-0 -0 -1 -1 -1 -1 -2 -2 -2 -2 -3 -3 -3 -3 -4 -4 -4 -4 -4 -4 -4 -4 -4 -4 -5 -5 -5 -5 -5 -5 -5 -5 -4 -4 -4 -4 -4 -4 -4 -4 -4 -4 -4 -4
-0 -1 -1 -1 -2 -2 -2 -2 -3 -3 -3 -3 -3 -3 -4 -4 -4 -4 -4 -4 -4 -5 -5 -5 -5 -5 -5 -5 -5 -5 -5 -5 -5 -5 -5 -5 -5 -5 -5 -5 -5 -5 -5 -5
-1 -1 -2 -2 -2 -2 -2 -2 -3 -3 -3 -3 -4 -4 -4 -4 -4 -4 -4 -4 -5 -5 -5 -5 -5 -5 -6 -6 -5 -5 -5 -5 -5 -5 -5 -5 -5 -5 -5 -5 -5 -5 -5 -5
-2 -2 -2 -2 -3 -3 -3 -3 -3 -3 -3 -3 -4 -4 -4 -4 -5 -4 -5 -5 -5 -5 -5 -5 -5 -6 -6 -6 -6 -6 -6 -6 -6 -6 -6 -5 -5 -5 -5 -6 -6 -6 -6 -6
-2 -3 -3 -3 -3 -4 -4 -4 -4 -4 -4 -4 -4 -4 -4 -5 -5 -5 -5 -5 -5 -5 -5 -6 -6 -6 -6 -6 -6 -6 -6 -6 -6 -6 -6 -6 -6 -6 -6 -6 -6 -6 -6 -6
-3 -3 -3 -4 -4 -4 -5 -5 -5 -5 -5 -5 -5 -5 -5 -5 -5 -5 -5 -5 -5 -5 -6 -6 -6 -6 -6 -6 -6 -6 -6 -6 -6 -6 -6 -6 -6 -6 -6 -6 -6 -6 -6 -6
Wind_Speed
1 1 2 2 3 4 5 6 6 4 4 3 1 1 1 1 1 2 2 2 2 3 4 4 4 5 6 6 7 8 8 8 8 7 7 7 6 6 5 5 5 4 4 3
2 1 1 1 2 4 4 4 5 4 4 4 1 2 2 2 2 2 3 4 4 4 4 5 6 6 6 7 8 8 9 8 8 8 7 7 7 6 6 5 4 4 4 4
1 2 3 4 5 6 4 3 5 7 6 3 1 1 1 2 3 3 5 6 6 5 6 6 6 7 8 8 7 8 9 8 8 8 8 7 7 7 6 5 5 4 4 4
2 2 3 5 3 3 4 1 1 1 1 1 2 3 3 2 2 4 5 6 7 6 7 6 6 5 6 6 8 9 9 9 9 9 8 8 7 7 6 5 5 4 4 5
3 2 4 5 2 1 3 1 4 1 2 2 1 3 1 2 3 3 4 5 6 6 7 6 5 4 5 6 7 9 9 9 9 10 9 9 8 7 6 5 5 4 4 5
3 3 5 4 2 1 4 1 3 3 4 3 3 1 3 5 5 5 5 5 5 6 5 5 4 2 5 6 7 9 9 9 9 9 9 9 8 7 5 5 5 5 5 5
3 4 5 4 3 2 3 4 1 2 3 3 1 3 5 6 5 5 5 6 6 6 6 5 3 1 4 5 7 7 6 7 8 8 9 8 7 6 5 5 5 5 5 5
4 5 6 2 2 3 3 2 2 2 3 3 3 4 4 5 5 5 6 6 6 6 6 6 3 0 2 4 4 4 6 7 7 8 7 7 8 7 7 7 7 6 6 5
6 5 0 2 3 3 2 2 1 2 3 4 4 5 5 5 5 5 5 5 5 5 5 5 4 2 2 3 2 4 5 6 6 7 7 7 8 8 7 7 7 6 6 6
2 2 2 3 4 3 3 2 1 2 4 4 5 6 6 6 5 5 5 5 5 4 5 5 4 3 2 2 2 4 6 6 6 7 7 7 7 7 7 8 8 7 7 7
2 2 3 1 1 1 1 1 2 4 4 5 6 7 6 6 6 5 5 5 4 4 5 5 4 4 3 2 2 4 5 5 6 6 7 7 7 8 9 9 9 9 8 7
6 6 5 4 3 1 0 2 3 4 5 5 5 7 7 6 6 5 6 5 5 5 5 5 5 4 3 2 2 3 4 5 5 5 6 6 6 6 11 12 15 16 14 11
4 3 3 3 2 1 1 3 4 5 6 6 6 6 6 6 5 5 5 6 6 6 6 6 5 5 4 3 3 3 4 5 4 5 5 6 6 6 6 8 14 16 17 17
4 4 2 2 1 1 1 3 4 5 5 5 6 6 6 6 6 6 6 6 6 6 6 5 5 5 4 3 3 4 4 5 5 5 5 6 6 7 6 6 6 6 11 17
4 4 3 2 1 1 2 3 5 5 6 6 6 6 6 7 7 7 6 6 6 6 6 5 6 6 5 4 4 4 4 4 4 4 4 5 5 6 6 7 7 6 4 7
5 3 2 2 2 3 3 4 5 6 6 7 7 7 7 7 7 7 6 6 6 6 6 6 6 6 5 5 5 4 5 6 5 4 4 5 5 5 6 6 6 6 6 6
5 4 4 4 4 4 4 5 6 6 7 7 7 7 7 7 7 7 7 6 6 6 6 6 6 6 5 5 5 4 4 5 6 4 4 5 5 5 6 6 6 6 7 7
5 5 5 4 4 5 6 6 6 6 7 7 7 7 7 7 7 8 8 7 7 7 6 6 6 6 5 5 4 4 4 4 4 4 4 4 5 5 5 6 6 7 5 6
5 5 5 5 5 5 6 6 7 7 7 7 7 7 7 7 7 8 7 7 7 8 7 5 7 6 5 5 5 4 4 4 4 4 4 6 5 4 4 5 5 5 5 4
4 4 5 5 6 6 7 7 7 7 7 6 7 7 8 8 7 8 8 8 7 6 6 7 6 5 5 5 6 4 4 5 5 4 4 4 4 4 4 4 5 5 5 5
5 5 6 6 7 7 7 7 7 8 8 7 7 9 9 9 8 7 7 8 7 6 6 9 6 5 5 5 6 4 4 4 5 4 4 4 4 4 4 4 4 4 4 4
4 5 6 6 6 8 7 6 7 8 8 8 8 8 9 9 8 7 7 7 7 8 6 5 5 7 7 7 4 4 4 5 4 4 4 4 4 4 3 3 3 3 3 3
5 5 6 6 7 7 7 7 7 7 8 8 9 9 9 8 6 6 8 5 5 8 6 5 8 10 10 5 3 4 4 4 4 4 4 4 4 3 3 3 3 3 3 3
4 5 6 6 5 6 8 8 7 7 8 8 9 9 8 7 6 6 7 9 10 10 6 8 11 11 9 4 3 4 4 4 4 4 4 4 3 3 3 3 3 3 3 4
5 5 5 6 6 6 7 8 8 7 7 7 8 8 6 6 6 6 5 6 9 10 6 8 11 11 6 4 4 4 4 4 4 4 4 3 3 3 3 3 3 3 3 3
4 5 5 6 6 6 6 6 6 6 6 7 7 6 5 5 6 6 5 6 7 9 6 5 5 6 4 4 4 4 4 4 5 4 3 3 3 3 3 3 4 4 3 3
5 5 5 5 5 5 5 5 6 7 6 6 8 6 5 5 5 5 6 5 5 5 5 5 4 4 4 4 4 4 4 4 4 4 4 3 3 3 4 4 4 4 4 4
Wind_Direction
224 213 151 188 201 179 175 182 181 203 210 248 271 164 93 53 48 43 350 320 287 264 253 244 233 219 202 190 177 165 161 165 170 161 151 146 145 143 141 145 152 154 152 153
357 343 87 323 263 210 206 199 203 210 242 256 256 101 70 44 36 8 329 312 305 291 276 254 235 223 210 199 186 172 172 176 166 157 155 155 155 153 153 158 159 161 168 170
267 349 49 290 251 214 200 208 190 215 237 242 200 135 103 41 20 350 329 322 313 297 278 261 244 224 213 204 185 178 179 174 168 164 165 166 164 163 170 174 173 176 180 178
131 86 224 252 285 186 166 315 318 224 288 252 197 145 110 64 18 342 329 322 315 305 293 278 255 234 213 187 180 182 182 178 173 170 172 169 170 177 180 176 180 183 185 183
140 187 271 288 301 131 142 58 357 53 28 14 94 105 13 4 349 315 310 305 298 293 287 285 267 233 192 183 182 184 188 187 181 176 174 175 182 184 181 178 183 186 184 185
153 187 231 249 286 328 105 174 351 55 41 14 70 74 283 324 328 322 323 317 312 314 310 309 290 214 182 188 189 199 198 190 180 176 177 183 186 181 177 179 187 186 192 195
173 219 258 265 297 69 162 227 63 53 30 20 59 231 279 312 320 323 323 325 330 333 330 318 311 178 188 197 210 208 184 172 174 178 181 181 178 175 176 180 184 192 200 208
171 205 246 286 106 154 183 105 80 42 9 344 307 301 311 319 321 326 329 329 334 337 334 333 336 159 208 224 216 173 169 175 180 180 180 177 176 181 182 185 194 201 208 219
192 209 192 77 114 95 103 109 57 356 334 328 313 310 311 308 312 316 318 319 323 326 329 336 344 339 259 257 193 174 175 185 185 181 183 178 180 185 189 195 205 209 212 222
178 197 139 105 92 67 65 85 15 339 326 328 312 307 306 304 306 312 314 312 315 319 320 322 331 328 285 266 208 188 193 193 187 187 190 188 190 191 197 205 211 213 215 222
189 162 125 155 108 92 65 39 356 336 321 314 309 304 301 302 304 307 309 309 311 306 299 301 310 309 298 265 212 206 205 201 197 198 197 199 203 206 207 214 213 213 216 214
207 196 184 199 192 170 112 316 313 312 309 307 302 301 302 297 297 301 305 307 308 306 301 299 299 295 292 269 231 216 217 211 208 206 205 207 211 222 223 223 228 229 227 221
169 153 159 170 161 132 254 294 305 303 299 304 305 299 300 298 299 303 306 309 306 303 301 299 296 294 295 280 246 230 230 225 219 214 212 212 213 218 231 233 235 237 236 235
138 127 146 159 182 296 307 317 318 312 310 311 311 308 306 303 304 306 307 308 306 305 304 302 296 293 296 291 271 256 247 234 226 225 221 219 218 220 222 225 231 237 236 237
156 154 170 176 243 309 326 321 318 315 315 313 312 309 310 307 302 301 302 301 301 300 299 300 297 299 306 293 277 267 257 247 235 230 226 226 224 222 223 224 231 236 231 237
165 156 164 203 256 287 303 304 301 301 304 304 307 306 302 300 298 298 298 298 298 298 297 295 293 298 299 291 281 273 262 256 248 238 231 228 224 225 226 227 231 233 234 232
160 195 211 233 251 267 275 275 277 284 292 293 296 299 299 300 300 301 302 298 288 286 288 286 287 293 292 286 281 275 270 265 255 248 238 233 231 229 230 229 232 235 236 231
186 195 199 216 240 261 275 277 277 281 282 284 292 295 294 293 294 295 297 299 295 293 286 279 283 288 285 284 282 276 273 271 263 254 248 243 242 236 233 232 233 236 240 239
197 211 226 237 244 251 261 268 272 273 276 280 283 283 281 280 281 286 291 293 290 290 290 280 288 287 278 277 282 271 271 271 268 261 256 258 256 242 239 237 236 235 235 232
220 232 242 253 255 252 260 267 271 273 272 271 274 278 281 280 279 283 286 281 272 268 277 282 283 275 271 272 279 269 270 271 268 266 261 256 255 253 248 245 242 238 233 231
244 254 260 263 269 267 263 266 270 273 274 270 267 270 275 279 278 278 280 285 280 268 274 283 281 271 267 269 273 264 264 269 272 271 267 265 263 259 255 252 250 246 241 238
254 261 268 271 274 279 276 269 265 270 275 275 271 270 274 278 279 275 263 261 272 282 283 274 272 274 274 274 257 257 262 265 267 267 267 268 267 266 263 261 260 258 254 250
262 266 272 275 276 280 286 280 270 268 270 272 273 272 270 270 269 272 282 270 263 279 282 271 278 283 281 272 251 253 261 265 267 265 262 263 265 267 266 265 262 258 255 253
277 281 281 284 287 288 288 287 283 275 270 271 269 265 264 272 273 253 252 278 286 287 279 279 287 287 285 262 247 250 256 263 266 265 261 259 261 264 265 267 268 268 266 265
283 285 287 293 290 282 280 288 293 288 283 280 277 271 260 248 255 269 267 269 282 290 283 285 289 289 282 257 247 246 250 255 259 259 253 255 258 261 264 267 269 271 268 267
285 284 279 273 271 277 283 286 287 289 290 293 293 284 275 266 261 266 270 269 270 283 282 275 277 279 266 256 251 249 248 260 272 268 255 254 258 261 263 266 270 270 272 271
295 292 291 292 287 278 278 279 282 288 287 285 290 291 286 283 279 275 273 274 276 276 274 272 268 262 258 253 251 250 249 248 248 250 249 248 252 256 260 264 267 270 273 273
Height
1476 1473 1474 1474 1473 1474 1478 1480 1484 1481 1479 1476 1475 1474 1474 1473 1473 1473 1473 1473 1473 1473 1472 1472 1472 1472 1473 1473 1474 1476 1477 1480 1482 1484 1486 1488 1489 1490 1491 1491 1491 1491 1490 1489
1477 1474 1474 1475 1474 1474 1475 1476 1477 1478 1478 1474 1473 1473 1473 1473 1473 1473 1472 1472 1471 1470 1470 1469 1469 1469 1469 1470 1471 1472 1474 1476 1479 1481 1482 1484 1485 1486 1487 1487 1487 1486 1485 1484
1482 1477 1476 1480 1474 1473 1473 1473 1474 1476 1475 1473 1473 1473 1473 1473 1473 1472 1471 1470 1469 1468 1467 1466 1465 1465 1465 1466 1467 1469 1471 1473 1475 1477 1479 1480 1482 1482 1483 1483 1482 1482 1481 1480
1484 1482 1486 1477 1470 1470 1472 1474 1473 1473 1472 1472 1472 1473 1473 1473 1472 1471 1469 1468 1466 1465 1463 1463 1462 1462 1462 1463 1463 1465 1467 1469 1471 1473 1475 1477 1477 1478 1478 1478 1478 1477 1477 1476
1485 1486 1482 1474 1470 1470 1472 1475 1475 1473 1473 1472 1471 1471 1472 1472 1471 1470 1468 1466 1464 1462 1460 1459 1458 1458 1458 1459 1460 1461 1463 1466 1468 1470 1471 1472 1473 1474 1474 1474 1474 1473 1473 1472
1484 1482 1480 1474 1470 1469 1471 1476 1476 1474 1473 1472 1471 1474 1473 1470 1469 1467 1465 1463 1461 1459 1457 1456 1455 1455 1455 1455 1456 1458 1460 1462 1464 1465 1467 1468 1469 1470 1470 1470 1469 1469 1469 1468
1482 1482 1477 1472 1469 1469 1478 1477 1476 1474 1473 1472 1472 1473 1471 1469 1467 1465 1463 1461 1459 1457 1455 1453 1452 1452 1452 1452 1453 1455 1456 1458 1459 1461 1462 1463 1464 1465 1465 1465 1465 1465 1465 1465
1482 1481 1480 1470 1469 1473 1474 1474 1474 1473 1473 1472 1471 1470 1468 1467 1465 1463 1461 1459 1457 1454 1452 1451 1450 1449 1449 1450 1451 1451 1452 1453 1455 1456 1457 1458 1459 1460 1460 1460 1460 1460 1460 1461
1475 1475 1471 1470 1470 1472 1472 1473 1473 1472 1472 1471 1469 1468 1466 1464 1463 1461 1459 1457 1455 1453 1451 1449 1448 1447 1447 1447 1447 1448 1448 1449 1450 1451 1452 1453 1454 1454 1455 1455 1455 1455 1456 1456
1472 1471 1471 1471 1471 1472 1472 1472 1472 1471 1470 1469 1467 1465 1464 1462 1460 1458 1456 1454 1452 1450 1449 1447 1446 1445 1444 1444 1443 1443 1444 1444 1445 1446 1447 1448 1448 1449 1450 1450 1450 1451 1451 1452
1470 1470 1471 1471 1471 1471 1471 1471 1470 1469 1468 1467 1465 1463 1461 1459 1457 1455 1453 1451 1450 1448 1446 1444 1443 1442 1441 1440 1440 1439 1439 1440 1440 1441 1442 1442 1443 1444 1444 1445 1446 1446 1447 1447
1468 1466 1468 1468 1469 1469 1469 1468 1467 1466 1464 1463 1462 1459 1458 1456 1454 1452 1450 1448 1446 1444 1442 1441 1439 1438 1437 1436 1436 1435 1435 1435 1435 1436 1436 1437 1437 1438 1439 1440 1440 1441 1441 1442
1463 1464 1465 1466 1467 1467 1466 1465 1464 1463 1461 1460 1458 1456 1454 1452 1450 1448 1446 1444 1442 1440 1438 1437 1435 1434 1433 1432 1431 1431 1430 1430 1430 1431 1431 1432 1432 1433 1433 1434 1435 1435 1436 1437
1462 1463 1464 1464 1464 1464 1463 1462 1461 1460 1458 1457 1454 1452 1450 1448 1446 1444 1442 1440 1438 1436 1434 1432 1431 1429 1428 1427 1427 1426 1425 1425 1425 1425 1426 1426 1427 1427 1428 1428 1429 1429 1430 1431
1460 1461 1462 1462 1462 1461 1460 1459 1458 1456 1455 1453 1451 1449 1446 1444 1442 1440 1438 1436 1434 1432 1430 1428 1426 1425 1424 1423 1422 1421 1420 1420 1420 1420 1420 1420 1421 1422 1422 1422 1423 1423 1424 1425
1458 1459 1459 1459 1459 1458 1457 1456 1455 1453 1451 1449 1447 1445 1443 1441 1438 1436 1434 1432 1429 1427 1425 1423 1421 1420 1419 1418 1417 1416 1415 1414 1414 1414 1414 1415 1415 1415 1416 1416 1416 1417 1417 1418
1456 1456 1457 1456 1456 1455 1454 1453 1452 1450 1448 1446 1443 1441 1439 1437 1434 1432 1430 1428 1425 1423 1421 1419 1417 1415 1414 1412 1411 1410 1410 1409 1409 1409 1408 1409 1409 1409 1409 1410 1410 1410 1411 1412
1454 1454 1454 1454 1453 1452 1451 1450 1448 1446 1444 1442 1440 1437 1435 1433 1430 1428 1425 1423 1421 1418 1416 1414 1412 1410 1409 1408 1406 1405 1405 1404 1404 1403 1403 1403 1403 1403 1403 1403 1404 1404 1405 1405
1452 1452 1452 1451 1450 1449 1447 1446 1444 1442 1440 1438 1436 1433 1431 1429 1426 1424 1422 1419 1416 1414 1412 1410 1408 1406 1404 1403 1401 1400 1399 1399 1398 1398 1398 1397 1397 1397 1397 1397 1398 1398 1398 1398
1450 1449 1449 1448 1447 1446 1444 1442 1440 1438 1436 1434 1432 1429 1427 1425 1423 1420 1417 1415 1412 1410 1407 1405 1403 1401 1400 1398 1397 1396 1395 1394 1393 1393 1392 1392 1392 1392 1391 1391 1391 1391 1391 1391
1447 1446 1446 1444 1443 1442 1440 1438 1436 1434 1432 1430 1427 1425 1422 1420 1418 1416 1413 1410 1408 1406 1403 1401 1399 1397 1395 1394 1393 1391 1390 1390 1389 1388 1388 1387 1387 1386 1386 1386 1385 1385 1385 1385
1444 1443 1442 1440 1439 1437 1435 1433 1431 1429 1427 1425 1422 1420 1417 1415 1413 1411 1408 1406 1403 1401 1398 1396 1394 1393 1391 1390 1388 1387 1386 1385 1384 1384 1383 1382 1382 1381 1381 1380 1380 1379 1379 1379
1440 1439 1438 1436 1434 1432 1430 1429 1426 1424 1422 1419 1417 1415 1412 1410 1408 1406 1403 1401 1399 1396 1394 1392 1390 1388 1387 1385 1384 1383 1382 1381 1380 1379 1378 1378 1377 1376 1375 1375 1374 1374 1373 1373
1437 1435 1434 1432 1430 1427 1425 1423 1421 1419 1416 1414 1412 1410 1407 1405 1403 1401 1399 1396 1394 1391 1389 1387 1385 1384 1382 1381 1379 1379 1378 1377 1376 1375 1374 1373 1372 1371 1371 1370 1369 1368 1368 1367
1433 1431 1429 1427 1425 1422 1420 1418 1415 1413 1411 1409 1407 1405 1402 1400 1398 1396 1394 1391 1389 1387 1384 1383 1381 1379 1377 1376 1375 1374 1373 1372 1371 1371 1370 1369 1368 1367 1366 1365 1364 1364 1363 1362
1428 1427 1424 1422 1420 1418 1415 1412 1410 1408 1405 1403 1401 1399 1397 1395 1393 1390 1388 1386 1384 1382 1380 1377 1376 1374 1372 1371 1370 1369 1369 1368 1367 1366 1366 1365 1364 1363 1362 1361 1360 1359 1358 1357
1424 1422 1419 1417 1415 1413 1410 1407 1405 1402 1400 1398 1395 1393 1391 1389 1387 1385 1383 1381 1379 1377 1375 1373 1371 1369 1368 1366 1365 1365 1364 1363 1363 1362 1361 1360 1360 1359 1358 1357 1356 1355 1354 1353